Regional Weather Roundup
Issued by NWS State College, PA

Home | Current Version | Previous Version | Text Only | Print | Product List | Glossary On
Versions: 1 2 3 4 5 6 7 8 9 10 11 12 13 14 15 16 17 18 19 20 21 22 23 24 25 26 27 28 29 30 31 32 33 34 35 36 37 38 39 40 41 42 43 44 45 46 47 48 49 50
000
ASUS41 KCTP 301110
RWRCTP

REGIONAL WEATHER ROUNDUP
NATIONAL WEATHER SERVICE STATE COLLEGE PA
700 AM EDT THU MAR 30 2017

Note: "fair" indicates few or no clouds below 12,000 feet with no
significant weather and/or obstructions to visibility.

* = STATION THAT DOES NOT REPORT PRECIPITATION /E.G. RAIN...SNOW...ETC/
    THUNDER OR FOG.

PAZ002>004-007>009-013>016-020>023-029>032-301200-
WESTERN PENNSYLVANIA

CITY           SKY/WX    TMP DP  RH WIND       PRES   REMARKS
ERIE           LGT RAIN  42  28  57 E6        30.13S
MEADVILLE      CLOUDY    41  27  57 E9        30.10S
FRANKLIN*      CLOUDY    39  25  56 E10       30.13F
NEW CASTLE     CLOUDY    44  29  55 E10G16    30.10S
BEAVER COUNTY  CLOUDY    43  28  56 N7        30.08
BUTLER*        MOCLDY    43  28  56 E16       30.11S
PITTSBURGH INT CLOUDY    45  30  55 E9        30.07S
PITTSBURGH     CLOUDY    45  28  51 E9        30.06S
INDIANA*       CLOUDY    41  28  60 E12G17    30.16R
LATROBE        MOCLDY    45  28  53 E7        30.11R
WASHINGTON CO* MOCLDY    45  30  57 NE9       30.06F
$$

PAZ004>006-010>012-017>019-024>028-033>037-041-042-045-046-049>053-301200-
CENTRAL PENNSYLVANIA

CITY           SKY/WX    TMP DP  RH WIND       PRES   REMARKS
BRADFORD       CLOUDY    33  22  63 E9        30.16F
DUBOIS         CLOUDY    35  21  56 E15       30.15F
CLEARFIELD     CLOUDY    36  25  64 NE9       30.20S
JOHNSTOWN      CLOUDY    37  27  67 E7        30.12S
ALTOONA        CLOUDY    38  27  64 E8        30.20R
STATE COLLEGE  PTCLDY    34  27  75 NE6       30.23R
WILLIAMSPORT   PTCLDY    37  26  64 CALM      30.25F
SELINSGROVE    MOCLDY    37  29  72 CALM      30.26S
FT INDIANTOWN  CLOUDY    35  28  74 CALM      30.25F
CAPITAL CITY   CLOUDY    40  26  57 E5        30.26F
HARRISBURG     CLOUDY    39  27  62 CALM      30.26S
YORK           CLOUDY    37  27  67 NE5       30.26R
$$

PAZ038>040-043-044-047-048-054-055-060>062-067>071-301200-
EASTERN PENNSYLVANIA

CITY           SKY/WX    TMP DP  RH WIND       PRES   REMARKS
SCRANTON       CLOUDY    32  25  75 CALM      30.24S
MOUNT POCONO   CLOUDY    29  22  75 N8        30.18S
ALLENTOWN      CLOUDY    35  24  64 CALM      30.27R
QUAKERTOWN*    SUNNY     30  25  80 CALM      30.28R
READING        CLOUDY    36  28  73 CALM      30.26R
LANCASTER      CLOUDY    36  28  73 CALM      30.26S
COATESVILLE    MOSUNNY   34  25  69 N5        30.27R
POTTSTOWN      CLOUDY    31  24  75 CALM      30.29R
BLUE BELL      CLEAR     32  28  86 CALM      30.27R
DOYLESTOWN     CLEAR     31  25  78 CALM      30.27R
WILLOW GROVE   NOT AVBL
NORTH PHILA    CLEAR     35  25  66 NW6       30.30R
PHILADELPHIA   PTCLDY    37  24  59 N6        30.28R
$$



USA.gov is the U.S. government's official web portal to all federal, state and local government web resources and services.